Regional Weather Roundup
Issued by NWS Little Rock, AR

Home | Current Version | Previous Version | Text Only | Print | Product List | Glossary On
Versions: 1 2 3 4 5 6 7 8 9 10 11 12 13 14 15 16 17 18 19 20 21 22 23 24 25 26 27 28 29 30 31
000
ASUS44 KLZK 240305
RWRLZK

WEATHER ROUNDUP FOR ARKANSAS
NATIONAL WEATHER SERVICE LITTLE ROCK AR
1000 PM CDT TUE MAY 23 2017

NOTE: "FAIR" INDICATES FEW OR NO CLOUDS BELOW 12,000 FEET WITH NO
SIGNIFICANT WEATHER AND/OR OBSTRUCTIONS TO VISIBILITY.

ARZ001-003-010-029-240400-
NORTHWEST ARKANSAS

CITY           SKY/WX    TMP DP  RH WIND       PRES   REMARKS
FAYETTEVILLE   MOCLDY    54  54 100 CALM      29.79F
FORT SMITH     PTCLDY    62  54  74 W9        29.79R
HARRISON       PTCLDY    56  53  90 W3        29.78R
BENTONVILLE    MOCLDY    57  46  67 NW3       29.81S
ROGERS         PTCLDY    55  49  80 NW5       29.81R
SILOAM SPGS    CLOUDY    57  45  62 NW21      29.81R
HIGHFILL       MOCLDY    59  49  69 NW12      29.81R
$$

ARZ004-005-016-240400-
NORTH CENTRAL ARKANSAS

CITY           SKY/WX    TMP DP  RH WIND       PRES   REMARKS
BATESVILLE     CLOUDY    63  57  82 NW5       29.73S
FLIPPIN        MOCLDY    61  52  72 W3        29.74R
MTN HOME       MOCLDY    58  55  90 CALM      29.76R
$$

ARZ040-041-240400-
WEST CENTRAL ARKANSAS

CITY           SKY/WX    TMP DP  RH WIND       PRES   REMARKS
MENA           CLOUDY    63  55  77 W9        29.81R
MOUNT IDA      LGT RAIN  63  51  65 NW7       29.76R
$$

ARZ009-017-025-026-028-240400-
NORTHEAST ARKANSAS

CITY           SKY/WX    TMP DP  RH WIND       PRES   REMARKS
JONESBORO      LGT RAIN  61  59  93 W3        29.70F
NEWPORT        CLOUDY    60  59  96 N6        29.71S
WALNUT RIDGE   CLOUDY    63  57  82 NW8       29.71S
BLYTHEVILLE    CLOUDY    63  59  87 W9        29.69S
$$

ARZ022-023-033-042-044-240400-
CENTRAL ARKANSAS

CITY           SKY/WX    TMP DP  RH WIND       PRES   REMARKS
LITTLE ROCK    CLOUDY    64  58  80 NW10      29.73R
N LITTLE ROCK    N/A     62  58  87 N3        29.73S
JACKSONVILLE   CLOUDY    64  59  82 W7        29.73R
CONWAY           N/A     64  59  82 W7        29.74R
SEARCY         CLOUDY    62  61  96 VRB3      29.74R
HOT SPRINGS    CLOUDY    67  55  65 VRB7G17   29.74S
RUSSELLVILLE   CLOUDY    64  55  72 NW6       29.75R
CLINTON        CLOUDY    63  55  77 CALM      29.74S
$$

ARZ036-240400-
EAST ARKANSAS

CITY           SKY/WX    TMP DP  RH WIND       PRES   REMARKS
WEST MEMPHIS   CLOUDY    63  56  78 VRB6      29.69R
$$

ARZ050-053-066-070-073-240400-
SOUTHWEST ARKANSAS

CITY           SKY/WX    TMP DP  RH WIND       PRES   REMARKS
ARKADELPHIA    TSTM      65  63  93 CALM      29.73S
CAMDEN         LGT RAIN  63  59  88 SW3       29.72S
TEXARKANA      RAIN      59  59 100 NW13G25   29.80R FOG
EL DORADO      CLOUDY    62  62 100 SW7       29.74F
DE QUEEN       CLOUDY    60  57  89 W6        29.79R
$$

ARZ056-057-069-240400-
SOUTHEAST ARKANSAS

CITY           SKY/WX    TMP DP  RH WIND       PRES   REMARKS
PINE BLUFF     CLOUDY    66  59  78 NW3       29.72R
STUTTGART      CLOUDY    64  52  63 NW5       29.73R
MONTICELLO     LGT RAIN  63  60  90 W5        29.71R

$$






USA.gov is the U.S. government's official web portal to all federal, state and local government web resources and services.